Simultaneous Nadir Overpasses (SNOs) Predictions

Prediction of SNOs between GOES-16 and FY3D Satellite Orbit:

Table of predicted SNOs for the next 14.0 days since TLE Epoch: 10/22/2022
Index Date Time (GOES-16) GOES-16 Lat,Lon FY3D Lat,Lon Distance(km) Time Diff (sec)
1 10/22/2022 06:57:29 0.03, -75.19 0.06, -75.41 23.73 80
2 10/23/2022 06:39:03 0.03, -75.20 -0.92, -70.94 485.92 80
3 10/24/2022 18:58:47 -0.03, -75.22 -0.28, -76.34 127.53 80
4 10/25/2022 18:43:01 -0.03, -75.23 0.70, -71.87 382.33 80
5 10/27/2022 07:02:38 0.03, -75.23 0.47, -77.24 229.01 80
6 10/28/2022 06:46:51 0.03, -75.24 -0.51, -72.77 280.71 80
7 10/29/2022 19:06:36 -0.02, -75.25 -0.68, -78.17 332.96 80
8 10/30/2022 18:50:49 -0.02, -75.26 0.30, -73.71 176.92 80
9 11/01/2022 07:13:07 0.02, -75.27 0.86, -79.08 433.82 80
10 11/02/2022 06:52:00 0.02, -75.29 -0.13, -74.61 76.40 80
11 11/04/2022 18:55:58 -0.01, -75.33 -0.07, -75.55 25.14 80
